Tracking 35331 objects as of 16-Sep-2026
HD Live streaming from Space Station
objects crossing your sky now

HAWK-5C

Track HAWK-5C now!
10-day predictions


NORAD ID: 52754
Int'l Code: 2022-057Y
Launch date: May 25, 2022
Source: United States (US)
Launch site: AIR FORCE EASTERN TEST RANGE (AFETR)
Your satellite tracking list
Your tracking list is empty




NASA's NSSDC Master Catalog

Two Line Element Set (TLE):
1 52754U 22057Y   26258.71057697  .00016423  00000-0  25267-3 0  9995
2 52754  97.6682  64.4764 0004796  98.7881 261.3916 15.54299057240394
Source of the keplerian elements: AFSPC